Location: Lauri�re
(46.0493°N, 1.4803°E)
Time: 08:51:45
(UTC+00:00)

Daily predictions for brighter satellites

Satellite Brightness Start Highest point End
(mag) Time Altitude Azimuth Time Altitude Azimuth Time Altitude Azimuth
Cosmos 1697 Rocket 4.0 17:09:14 10° SE 17:13:09 20° E 17:17:04 10° NE
Cosmos 1825 Rocket 3.6 17:10:07 10° N 17:14:36 84° E 17:19:01 10° S
ERS-2 2.3 17:14:24 10° NNE 17:17:58 49° ESE 17:21:30 10° S
Helios 1A Rocket 4.2 17:15:56 10° ESE 17:19:04 21° ENE 17:22:11 10° NNE
BREEZE-M TANK 3.5 17:09:23 10° W 17:21:08 84° S 17:24:51 10° E
YAOGAN 1 4.0 17:18:39 10° ESE 17:21:32 18° ENE 17:24:24 10° NNE
Meteor 2-21 Rocket 4.4 17:16:07 10° N 17:22:19 78° E 17:28:25 10° SSE
NOAA 11 4.2 17:20:53 10° SSE 17:26:14 62° ENE 17:31:36 10° N
Cosmos 44 3.4 17:22:16 10° SW 17:26:47 75° NW 17:31:36 10° NNE
Cosmos 1340 3.0 17:23:14 10° N 17:26:52 41° ENE 17:30:27 10° SSE
CZ-2D R/B 4.3 17:23:52 10° ESE 17:26:59 25° ENE 17:30:07 10° NNE
Okean O Rocket 1.9 17:23:46 10° S 17:28:07 75° WSW 17:32:29 10° NNW
Cosmos 2228 3.1 17:24:10 10° S 17:28:25 81° W 17:32:44 10° N
Cosmos 1726 Rocket 3.5 17:24:55 10° S 17:29:16 77° E 17:33:40 10° NNE
CZ-4 R/B 2.5 17:26:57 10° ESE 17:29:52 21° ENE 17:32:46 10° NNE
SL-4 R/B 2.6 17:30:24 10° WNW 17:33:40 35° N 17:36:33 13° ENE
Cosmos 1346 Rocket 3.7 17:31:10 10° NNE 17:34:36 27° ENE 17:38:01 10° SE
Aureole 3 2.9 17:32:05 10° S 17:35:02 45° E 17:37:54 10° NNE
CORIOLIS 4.3 17:29:58 10° SSE 17:35:20 79° WSW 17:40:44 10° NNW
Cosmos 2058 3.8 17:31:56 10° NNE 17:35:25 26° ENE 17:38:54 10° SE
Cosmos 1980 Rocket 3.6 17:33:33 10° SE 17:36:52 16° E 17:39:22 12° ENE
Cosmos 2297 Rocket 2.2 17:32:39 10° NNW 17:38:21 76° ENE 17:44:00 10° SSE
Timation 2 Rocket 4.5 17:33:22 10° NNW 17:39:59 73° WSW 17:46:47 10° SSE
In-Cosmos 22 Rocket 4.1 17:34:56 10° N 17:40:15 59° ENE 17:45:40 10° SSE
CZ-2C R/B 3.9 17:38:27 10° SE 17:43:34 34° ENE 17:48:33 10° N
Cosmos 1315 Rocket 3.8 17:42:21 10° SSE 17:45:37 25° E 17:48:56 10° NE
Cosmos 1606 Rocket 4.3 17:41:28 10° SSW 17:45:45 57° WNW 17:50:08 10° N
Cosmos 1553 Rocket 4.1 17:43:21 10° S 17:49:33 58° E 17:55:41 10° NNE
Cosmos 220 Rocket 4.5 17:47:03 10° S 17:51:07 40° ESE 17:55:16 10° NE
BREEZE-M R/B 3.6 17:50:23 10° WNW 17:54:00 59° NNE 17:59:00 18° E
USA 305 3.0 17:51:02 10° NW 17:55:19 60° NNE 17:58:10 20° ESE
Meteor 2-10 Rocket 3.8 17:50:23 10° SSE 17:55:23 45° E 18:00:14 10° NNE
SKYMED 2 3.5 17:52:17 10° NNE 17:56:37 62° ESE 18:00:54 10° S
Cosmos 1455 2.8 17:54:04 10° SSE 17:57:28 32° E 18:00:53 10° NNE
NOSS 3-4 (A) 4.4 17:54:56 10° NNW 18:01:11 36° NE 18:05:39 20° E
NOSS 3-4 (C) 4.4 17:55:03 10° NNW 18:01:17 36° NE 18:05:43 20° E
USA 306 2.9 17:57:33 10° NW 18:01:50 65° NNE 18:04:25 23° ESE
SeaSat 1 3.7 18:00:38 19° ENE 18:01:58 21° NE 18:05:38 10° N
H-2A R/B 2.7 17:59:09 10° SE 18:04:01 35° ENE 18:08:56 10° N
Okean-O 2.7 18:00:59 10° SSE 18:05:19 56° ENE 18:09:40 10° N
FALCON 9 DEB 4.1 18:03:21 10° W 18:06:23 36° NNW 18:07:57 22° NNE
FALCON 9 DEB 4.2 18:05:22 10° W 18:08:21 34° NNW 18:09:47 22° NNE
MOS 1 Rocket 4.1 18:04:48 10° NNE 18:09:03 31° E 18:13:30 10° SSE
SL-08 R/B 4.4 18:03:18 10° N 18:09:30 87° E 18:15:37 10° S
Cosmos 2278 4.4 18:05:07 10° SSE 18:10:03 32° ESE 18:12:45 21° ENE
NOSS 3-3 (A) 3.9 18:05:01 10° SSW 18:10:42 60° ESE 18:16:10 14° NE
NOSS 3-3 (C) 3.9 18:05:08 10° SSW 18:10:48 59° ESE 18:16:14 14° NE
Aureole 3 Rocket 3.6 18:06:55 10° SSW 18:11:02 71° WNW 18:16:51 10° N
Cosmos 2219 3.9 18:06:13 10° NNW 18:11:53 58° WSW 18:17:30 10° S
USA 215 4.1 18:10:10 18° ENE 18:14:14 35° N 18:20:03 10° NW
ATLAS 5 CENTAUR R/B 4.3 18:13:00 10° NNW 18:14:24 11° N 18:15:51 10° NNE
Cosmos 1745 Rocket 3.9 18:09:42 10° N 18:16:01 72° E 18:22:21 10° SSE
Lacrosse 5 3.3 18:14:01 10° NW 18:18:11 25° N 18:20:11 20° NE
Cosmos 44 Rocket 3.7 18:13:52 10° S 18:18:19 41° ESE 18:19:58 31° ENE
Cosmos 1408 2.4 18:15:29 10° N 18:19:08 73° E 18:22:48 10° SSE
Cosmos 2082 3.6 18:13:27 10° NNW 18:19:13 74° ENE 18:24:57 10° SSE
GEOS 3 Rocket 4.2 18:17:20 27° E 18:19:39 41° NE 18:24:40 10° NNW
ARGOS 3.7 18:17:21 23° ESE 18:19:53 36° ENE 18:24:48 10° N
Cosmos 1656 4.0 18:17:33 10° SW 18:23:05 67° WNW 18:28:46 10° NNE
FALCON 9 DEB 4.3 18:20:11 10° W 18:23:08 31° NNW 18:24:00 27° NNE
ATLAS 2AS CENTAUR R/B 3.4 18:16:12 10° NNW 18:23:15 39° NE 18:26:17 27° E
ERBS 4.5 18:21:39 10° NNW 18:23:41 15° NNE 18:23:42 15° NNE
Cosmos 2058 Rocket 4.2 18:19:28 10° SSW 18:23:48 47° WNW 18:28:10 10° N
Cosmos 968 Rocket 3.8 18:19:21 10° NNW 18:24:31 67° WSW 18:29:38 10° S
Cosmos 1386 Rocket 4.4 18:18:22 10° N 18:24:48 79° E 18:31:08 10° SSE
Cosmos 1689 Rocket 2.8 18:22:29 10° N 18:25:19 52° WNW 18:28:08 10° SSW
FALCON 9 DEB 4.4 18:29:52 10° WNW 18:32:43 28° NNW 18:33:08 27° N
FALCON 9 DEB 3.6 18:29:47 10° NW 18:32:58 46° NNE 18:32:58 46° NNE
Cosmos 1076 Rocket 3.3 18:29:16 10° N 18:33:33 79° E 18:37:48 10° SSE
Cosmos 2369 3.6 18:28:39 10° SSW 18:34:20 73° ESE 18:39:11 15° NNE
Cosmos 1892 3.8 18:32:01 10° NNW 18:35:45 45° W 18:39:27 10° SSW
Cosmos 1939 Rocket 4.3 18:32:42 10° SSW 18:36:24 38° W 18:40:05 10° NNW
Cosmos 1777 Rocket 4.5 18:33:45 10° N 18:38:35 38° ENE 18:38:35 38° ENE
CSL-04 Rocket 3.6 18:35:40 10° SSE 18:41:10 70° ENE 18:46:40 10° N
Cosmos 2227 Rocket 3.4 18:37:26 10° NW 18:42:44 43° WSW 18:48:02 10° S
COSMO-SKYMED 1 3.8 18:40:30 10° N 18:44:37 42° WNW 18:48:42 10° SW
Cosmos 2263 Rocket 2.7 18:39:46 10° NNW 18:45:04 37° NE 18:45:07 37° NE
Cosmos 1709 Rocket 3.9 18:39:09 10° N 18:45:32 69° E 18:51:53 10° SSE
USA 307 3.0 18:41:20 10° WNW 18:45:37 70° SW 18:46:28 53° SSE
CZ-4B R/B 4.5 18:44:26 10° NW 18:46:02 13° WNW 18:47:36 10° W
CZ-4C R/B 3.7 18:41:55 10° NNW 18:48:02 33° NNE 18:49:38 30° ENE
USA 308 3.1 18:46:19 10° WNW 18:50:35 65° SW 18:51:15 55° S
Cosmos 1825 2.3 18:47:32 10° NNW 18:51:20 71° W 18:52:23 44° SSW
Helios 1A Rocket 4.4 18:50:09 10° SSW 18:54:00 38° W 18:57:50 10° NNW
Cosmos 1697 Rocket 2.9 18:50:57 10° SW 18:56:32 68° WNW 19:01:26 14° NNE
YAOGAN 1 3.3 18:53:00 10° S 18:57:13 53° W 19:01:29 10° NNW
Cosmos 883 Rocket 4.3 18:53:17 10° S 18:59:26 87° E 19:05:36 10° N
Cosmos 1812 Rocket 4.1 19:00:02 10° SSW 19:04:23 59° WNW 19:08:43 10° N
CZ-4 R/B 2.9 19:01:10 10° SSW 19:04:42 34° W 19:08:14 10° NNW
Atlas Centaur 2 4.3 19:03:25 10° SW 19:10:04 26° S 19:12:40 23° SSE
Cosmos 2315 Rocket 3.8 19:04:03 10° S 19:10:15 86° E 19:16:29 10° N
SL-4 R/B 3.2 19:09:52 10° WNW 19:12:08 36° WNW 19:12:08 36° WNW
Cosmos 2151 4.2 19:11:43 10° NNW 19:14:08 33° NNW 19:14:08 33° NNW
Cosmos 1980 Rocket 2.2 19:14:30 10° SSW 19:20:08 80° WNW 19:21:13 59° N
CZ-2C R/B 4.5 19:17:55 10° SSW 19:23:19 41° W 19:28:36 10° NNW
Ariane Rocket 4.4 19:33:54 29° N 19:33:54 29° N 19:36:22 10° N
Geosat 4.4 19:33:07 60° NW 19:33:12 60° WNW 19:38:08 10° SW
SeaSat 1 3.3 19:40:26 47° NW 19:40:26 47° NW 19:43:58 10° NNW
H-2A R/B 3.5 19:38:24 10° SSW 19:43:23 37° W 19:48:25 10° NNW
NOSS 3-4 (A) 3.9 19:45:39 10° NW 19:52:40 72° SW 19:53:08 70° SSW
NOSS 3-4 (C) 3.9 19:45:45 10° NW 19:52:46 72° SW 19:53:11 71° SSW
USA 215 3.7 19:57:31 53° N 19:57:31 53° N 20:02:57 10° NW
ATLAS 5 CENTAUR R/B 4.5 19:58:06 10° NNW 19:59:05 13° N 19:59:05 13° N
Lacrosse 5 3.8 19:57:10 10° NW 19:59:23 25° NW 19:59:23 25° NW
ATLAS 2AS CENTAUR R/B 3.2 20:07:21 10° NW 20:13:44 59° W 20:13:44 59° W
Cosmos 2263 Rocket 4.0 20:23:45 10° NW 20:26:50 28° WNW 20:26:50 28° WNW
CZ-4C R/B 3.7 20:30:10 10° NW 20:34:49 46° NW 20:34:49 46° NW
